[[{"header":{"parameterUnit":"m.s-1","parameterCategory":1,"la1":30.2991,"la2":30.254,"lo1":-89.0895,"lo2":-89.0444,"dy":0.0017,"dx":0.0017,"nx":28,"ny":28,"refTime":"2025-03-01T03:00:00:Z","depth":0,"parameterNumber":2,"parameterNumberName":"U-component_of_WINDS"},"data":[0,0,0,0,0,0,0,0,0,0,0,0,0,0,0,0,0,0,0,0,0,0,0,0,0,0,0,0,0,0,0,0,0,0,0,0,0,0,0,0,0,0,0,0,0,0,0,0,0,0,0,0,0,0,0,0,0,0,1.765,1.765,0,1.7665,1.7665,1.7665,1.7674,1.7674,1.7675,1.7675,1.7689,1.769,1.769,0,0,0,0,0,0,0,0,0,0,0,0,0,1.763,1.763,1.765,1.765,1.765,1.7665,1.7665,1.7665,1.7674,1.7674,1.7675,1.7675,1.7689,1.7689,1.769,0,0,0,0,0,0,0,0,0,0,0,0,0,1.7641,1.763,1.765,1.7656,1.7657,1.7665,1.7665,1.7665,1.7674,1.7674,1.7675,1.7675,1.7689,1.7689,1.769,1.7691,0,0,1.7691,1.7692,0,0,0,0,0,0,0,0,1.764,1.7642,1.7655,1.7656,1.7657,1.7668,1.7663,1.7674,1.7674,1.7668,1.7675,1.7675,1.7682,1.7683,1.7686,1.7692,1.7693,1.7692,1.7692,1.7692,1.7692,0,0,0,0,0,0,0,1.764,1.7641,1.7656,1.7655,1.7656,1.7659,1.7661,1.7665,1.7674,1.7668,1.7669,1.7671,1.7682,1.7685,1.7686,1.7693,1.7691,1.7692,1.7692,1.7692,1.7704,1.7704,0,0,0,0,0,0,1.7638,1.764,1.7655,1.7656,1.7649,1.7659,1.7661,1.7664,1.7674,1.7676,1.7671,1.7671,1.7684,1.7685,1.7687,1.769,1.7692,1.7693,1.7693,1.7704,1.7704,1.7704,0,0,0,0,0,0,1.7637,1.7639,1.7654,1.7648,1.7651,1.766,1.7663,1.7664,1.7667,1.7676,1.7678,1.7672,1.7684,1.7686,1.7691,1.7691,1.7693,1.7693,1.7704,1.7704,1.7704,1.7697,0,0,0,0,0,0,1.7637,1.7639,1.7639,1.7648,1.7651,1.7658,1.7663,1.7665,1.7668,1.7669,1.7677,1.7679,1.7684,1.769,1.7691,1.7692,1.7694,1.7704,1.7704,1.7704,1.7697,1.7696,1.7696,0,0,0,0,0,1.7636,1.7636,1.7639,1.7641,1.7651,1.7658,1.7659,1.7666,1.7668,1.7669,1.7675,1.7679,1.7691,1.769,1.7692,1.7692,1.7704,1.7704,1.7704,1.7697,1.7697,1.7696,0,0,0,0,0,0,1.7625,1.7637,1.7641,1.7643,1.765,1.7659,1.766,1.7665,1.767,1.7671,1.7679,1.7681,1.7685,1.7689,1.7688,1.7696,1.7698,1.7698,1.7692,1.7692,1.7691,1.769,1.7694,0,0,0,0,0,1.7623,1.7627,1.7637,1.7639,1.7642,1.7651,1.7654,1.7659,1.7665,1.7668,1.7674,1.768,1.7686,1.7689,1.7694,1.7698,1.7701,1.7699,1.7699,1.7698,1.7698,1.7702,1.7702,1.7704,1.7704,1.7704,0,0,1.7619,1.7626,1.7628,1.7637,1.7642,1.7647,1.7653,1.7657,1.7661,1.7668,1.7674,1.7679,1.7686,1.7691,1.7693,1.7695,1.7699,1.7698,1.7698,1.7698,1.7702,1.7702,1.7702,1.7704,1.7704,1.7704,0,0,1.7613,1.7619,1.7621,1.7627,1.7636,1.7642,1.7643,1.7653,1.7657,1.7662,1.7669,1.7674,1.7682,1.7688,1.7692,1.7692,1.7696,1.7694,1.7691,1.7695,1.7695,1.7695,1.7695,1.7695,1.7694,1.7694,1.7694,0,1.7606,1.7614,1.7622,1.7627,1.7631,1.764,1.7643,1.7648,1.7658,1.7661,1.7663,1.7675,1.7681,1.7688,1.7688,1.7691,1.7693,1.7692,1.7694,1.7694,1.7694,1.7695,1.7695,1.7693,1.7693,1.7693,1.7693,0,1.7606,1.7611,1.7612,1.7623,1.7627,1.7631,1.7641,1.7644,1.765,1.7656,1.7663,1.767,1.7678,1.768,1.7685,1.7689,1.7689,1.7692,1.7695,1.7693,1.7695,1.7695,1.7693,1.7693,1.7693,1.7693,0,0,1.7592,1.7609,1.7609,1.7615,1.7626,1.763,1.7636,1.7644,1.7648,1.7655,1.766,1.7668,1.7672,1.7677,1.7682,1.7686,1.7687,1.7689,1.7689,1.7689,1.7693,1.769,1.7691,1.769,1.769,1.769,1.7692,0,1.7588,1.7598,1.7607,1.7613,1.7619,1.7628,1.7633,1.7641,1.7648,1.7654,1.7661,1.7667,1.7671,1.7674,1.7678,1.7686,1.7688,1.7686,1.7695,1.7695,1.7693,1.7691,1.7688,1.769,1.7693,1.7693,1.7693,0,1.7585,1.7593,1.76,1.7613,1.7616,1.762,1.763,1.7635,1.7645,1.765,1.7657,1.7663,1.767,1.7672,1.7682,1.7681,1.7686,1.769,1.7691,1.7691,1.7694,1.7692,1.769,1.769,1.7693,1.7693,1.7693,0,1.7575,1.7588,1.7594,1.7599,1.7614,1.7617,1.7623,1.7633,1.7638,1.7647,1.7651,1.766,1.7665,1.7672,1.7681,1.7682,1.7691,1.7694,1.7696,1.7695,1.7696,1.7696,1.7695,1.7699,1.7699,1.7699,1.7699,0,1.757,1.7574,1.759,1.7594,1.76,1.7611,1.7616,1.7623,1.7633,1.7639,1.7648,1.7653,1.7665,1.7672,1.768,1.7688,1.769,1.7694,1.7696,1.7693,1.7693,1.7696,1.7696,1.7699,1.7699,1.7699,1.7699,0,1.7559,1.757,1.7578,1.7593,1.7596,1.76,1.7613,1.7617,1.7625,1.7633,1.7636,1.7648,1.7658,1.7668,1.768,1.7685,1.7693,1.7696,1.769,1.7691,1.7692,1.7692,1.7693,1.7695,1.7698,1.7698,1.7698,0,1.7555,1.7559,1.7575,1.758,1.7586,1.7594,1.76,1.7612,1.7618,1.7631,1.7634,1.7644,1.7653,1.7668,1.7678,1.7688,1.7691,1.7691,1.7693,1.7691,1.7692,1.7692,1.7693,1.7691,1.769,1.769,1.769,0,1.7548,1.7554,1.7562,1.7573,1.758,1.7589,1.7598,1.7602,1.7616,1.7622,1.7632,1.7639,1.7653,1.7663,1.7675,1.7682,1.7689,1.769,1.7691,1.7688,1.7685,1.7687,1.7689,1.769,1.769,1.769,1.769,1.769,1.7541,1.7545,1.7557,1.7567,1.7576,1.7585,1.7591,1.76,1.7609,1.7621,1.7628,1.7638,1.765,1.7667,1.7674,1.7683,1.7685,1.7686,1.7687,1.7687,1.7686,1.7684,1.7685,1.7685,1.7685,1.7685,1.7685,0,1.7534,1.7543,1.7552,1.7565,1.7573,1.758,1.7591,1.7597,1.7607,1.7617,1.7627,1.7639,1.765,1.7662,1.7674,1.7679,1.7682,1.7682,1.7681,1.7683,1.7684,1.7682,1.7679,1.7679,1.7679,1.7679,1.7679,1.7679,1.7531,1.7539,1.7547,1.7561,1.757,1.758,1.7587,1.7595,1.7604,1.7618,1.7628,1.7636,1.7648,1.7661,1.7672,1.7675,1.7679,1.7678,1.7682,1.7682,1.7683,1.7683,1.7682,1.7678,1.7678,1.7681,1.7681,1.7681]},{"header":{"parameterUnit":"m.s-1","parameterCategory":1,"la1":30.2991,"la2":30.254,"lo1":-89.0895,"lo2":-89.0444,"dy":0.0017,"dx":0.0017,"nx":28,"ny":28,"refTime":"2025-03-01T03:00:00:Z","depth":0,"parameterNumber":3,"parameterNumberName":"V-component_of_WINDS"},"data":[0,0,0,0,0,0,0,0,0,0,0,0,0,0,0,0,0,0,0,0,0,0,0,0,0,0,0,0,0,0,0,0,0,0,0,0,0,0,0,0,0,0,0,0,0,0,0,0,0,0,0,0,0,0,0,0,0,0,-0.8037,-0.8037,0,-0.8013,-0.8013,-0.8013,-0.8037,-0.8037,-0.8038,-0.8039,-0.8014,-0.8012,-0.8011,0,0,0,0,0,0,0,0,0,0,0,0,0,-0.8102,-0.81,-0.8037,-0.8037,-0.8036,-0.8013,-0.8013,-0.8013,-0.8036,-0.8038,-0.8039,-0.804,-0.8014,-0.8012,-0.801,0,0,0,0,0,0,0,0,0,0,0,0,0,-0.8075,-0.81,-0.8037,-0.8045,-0.8046,-0.8013,-0.8013,-0.8013,-0.8036,-0.8038,-0.8039,-0.804,-0.8015,-0.8012,-0.801,-0.7968,0,0,-0.8003,-0.8002,0,0,0,0,0,0,0,0,-0.8077,-0.8073,-0.8044,-0.8045,-0.8045,-0.8029,-0.8027,-0.7998,-0.8036,-0.804,-0.8039,-0.8041,-0.8018,-0.8015,-0.8008,-0.7967,-0.7965,-0.8003,-0.8001,-0.8,-0.8,0,0,0,0,0,0,0,-0.8079,-0.8074,-0.8028,-0.8044,-0.8044,-0.805,-0.8048,-0.8021,-0.8021,-0.804,-0.8041,-0.8038,-0.8018,-0.801,-0.8007,-0.7965,-0.8003,-0.8001,-0.7999,-0.7998,-0.789,-0.7889,0,0,0,0,0,0,-0.808,-0.8075,-0.8028,-0.8027,-0.8065,-0.8048,-0.8045,-0.8033,-0.8021,-0.8021,-0.8037,-0.8039,-0.8013,-0.801,-0.8006,-0.7957,-0.8,-0.7998,-0.7997,-0.7892,-0.789,-0.7888,0,0,0,0,0,0,-0.8081,-0.8075,-0.8029,-0.8052,-0.8046,-0.8045,-0.8031,-0.8032,-0.8024,-0.802,-0.802,-0.8029,-0.8014,-0.801,-0.7978,-0.7957,-0.7997,-0.7995,-0.7893,-0.7891,-0.7889,-0.7858,0,0,0,0,0,0,-0.8083,-0.8076,-0.8059,-0.8051,-0.8045,-0.8001,-0.803,-0.803,-0.802,-0.8023,-0.8012,-0.8011,-0.8015,-0.7981,-0.7975,-0.7954,-0.7993,-0.7895,-0.7892,-0.789,-0.7861,-0.7855,-0.785,0,0,0,0,0,-0.8085,-0.8051,-0.8058,-0.8053,-0.8025,-0.8,-0.7996,-0.8001,-0.8018,-0.8002,-0.8,-0.8011,-0.796,-0.7978,-0.7971,-0.7949,-0.7897,-0.7893,-0.789,-0.7863,-0.7856,-0.785,0,0,0,0,0,0,-0.8055,-0.805,-0.8058,-0.802,-0.801,-0.8004,-0.7983,-0.7993,-0.7978,-0.7981,-0.7988,-0.7985,-0.7952,-0.7947,-0.7967,-0.7908,-0.7931,-0.7926,-0.7913,-0.7906,-0.79,-0.7902,-0.7991,0,0,0,0,0,-0.8045,-0.8025,-0.8021,-0.7988,-0.7983,-0.7984,-0.7973,-0.7978,-0.7968,-0.7964,-0.7959,-0.7948,-0.793,-0.7918,-0.79,-0.786,-0.7859,-0.7842,-0.7837,-0.7832,-0.7828,-0.7808,-0.7801,-0.7877,-0.7877,-0.7877,0,0,-0.8021,-0.8016,-0.8003,-0.7982,-0.7975,-0.7955,-0.798,-0.7957,-0.7942,-0.796,-0.793,-0.7927,-0.7915,-0.7879,-0.7863,-0.7875,-0.7807,-0.7828,-0.7824,-0.7822,-0.7804,-0.7796,-0.779,-0.7875,-0.7875,-0.7876,0,0,-0.797,-0.7963,-0.7936,-0.7929,-0.7918,-0.792,-0.7913,-0.7905,-0.7904,-0.7874,-0.7888,-0.787,-0.7838,-0.783,-0.7822,-0.7769,-0.778,-0.7763,-0.7734,-0.7715,-0.7709,-0.7703,-0.7686,-0.7679,-0.7759,-0.7759,-0.7759,0,-0.7942,-0.7913,-0.792,-0.7897,-0.7888,-0.7904,-0.7877,-0.7869,-0.7853,-0.7847,-0.786,-0.7821,-0.7814,-0.7778,-0.7765,-0.7757,-0.7751,-0.7764,-0.7709,-0.7704,-0.7699,-0.7682,-0.7675,-0.7757,-0.7757,-0.7757,-0.7758,0,-0.788,-0.7859,-0.7839,-0.7824,-0.7813,-0.7787,-0.7791,-0.7778,-0.7785,-0.7785,-0.7756,-0.7749,-0.7731,-0.7723,-0.7728,-0.7687,-0.7695,-0.7708,-0.7731,-0.769,-0.7674,-0.7668,-0.7754,-0.7755,-0.7756,-0.7756,0,0,-0.7807,-0.7799,-0.7792,-0.7786,-0.7777,-0.7761,-0.7737,-0.7721,-0.771,-0.7699,-0.7679,-0.7653,-0.7666,-0.7656,-0.7661,-0.7644,-0.7605,-0.766,-0.766,-0.7651,-0.756,-0.7551,-0.7543,-0.7612,-0.7611,-0.761,-0.7562,0,-0.7756,-0.7715,-0.7722,-0.7682,-0.7664,-0.7681,-0.766,-0.7652,-0.7652,-0.7636,-0.7636,-0.7618,-0.7636,-0.763,-0.7614,-0.7613,-0.7587,-0.7616,-0.7594,-0.7593,-0.7597,-0.7534,-0.7524,-0.7478,-0.7555,-0.7554,-0.7553,0,-0.769,-0.7679,-0.7637,-0.7633,-0.7625,-0.7606,-0.7593,-0.7578,-0.757,-0.7571,-0.7562,-0.757,-0.7547,-0.757,-0.7538,-0.7559,-0.755,-0.7548,-0.7547,-0.7545,-0.7571,-0.7532,-0.7464,-0.7457,-0.7544,-0.7544,-0.7545,0,-0.7643,-0.7616,-0.7589,-0.7583,-0.7577,-0.7564,-0.756,-0.7554,-0.7544,-0.7532,-0.7526,-0.7512,-0.7504,-0.7492,-0.7497,-0.7514,-0.7465,-0.7488,-0.7465,-0.7465,-0.7454,-0.7455,-0.7385,-0.7448,-0.7448,-0.7448,-0.7448,0,-0.7585,-0.7559,-0.7568,-0.755,-0.7523,-0.7531,-0.7503,-0.7502,-0.7496,-0.748,-0.7493,-0.7476,-0.7484,-0.7468,-0.7472,-0.7446,-0.7442,-0.7443,-0.7444,-0.7442,-0.7442,-0.7436,-0.744,-0.7446,-0.7447,-0.7447,-0.7447,0,-0.7527,-0.7531,-0.7502,-0.75,-0.7498,-0.7478,-0.7475,-0.746,-0.7462,-0.744,-0.7436,-0.7438,-0.7421,-0.7425,-0.7405,-0.7408,-0.7375,-0.738,-0.7378,-0.738,-0.7357,-0.7359,-0.7281,-0.7272,-0.7341,-0.734,-0.7339,0,-0.7489,-0.747,-0.7466,-0.7457,-0.7453,-0.7436,-0.7427,-0.7435,-0.7425,-0.7416,-0.7401,-0.7386,-0.7373,-0.7345,-0.7345,-0.7331,-0.7336,-0.731,-0.7334,-0.7333,-0.7336,-0.7338,-0.7336,-0.7305,-0.7304,-0.7303,-0.7303,0,-0.7423,-0.7427,-0.7414,-0.7402,-0.7391,-0.7381,-0.7373,-0.7364,-0.7372,-0.736,-0.7343,-0.7334,-0.7315,-0.73,-0.7287,-0.7284,-0.7294,-0.7295,-0.729,-0.7287,-0.7287,-0.7288,-0.7366,-0.7297,-0.7298,-0.7298,-0.7298,-0.7298,-0.7375,-0.736,-0.7355,-0.734,-0.7335,-0.7328,-0.7313,-0.7314,-0.73,-0.7287,-0.7292,-0.7273,-0.7267,-0.7251,-0.7247,-0.7232,-0.7242,-0.7233,-0.7231,-0.7229,-0.7226,-0.7289,-0.7229,-0.723,-0.723,-0.723,-0.723,0,-0.7311,-0.7309,-0.7295,-0.7284,-0.7273,-0.7285,-0.7277,-0.7267,-0.725,-0.7244,-0.7232,-0.7214,-0.7199,-0.7199,-0.7185,-0.7174,-0.7179,-0.717,-0.7171,-0.717,-0.7218,-0.7225,-0.7166,-0.7166,-0.7166,-0.7166,-0.7166,-0.7166,-0.7276,-0.7251,-0.7254,-0.7227,-0.7226,-0.7208,-0.7202,-0.7196,-0.7191,-0.717,-0.7159,-0.7159,-0.7155,-0.7142,-0.7129,-0.713,-0.7124,-0.7114,-0.7116,-0.716,-0.7167,-0.7173,-0.7179,-0.7113,-0.7112,-0.707,-0.707,-0.7069]}]]